Regional Weather Roundup
Issued by NWS Bismarck, ND

Home | Current Version | Previous Version | Text Only | Print | Product List | Glossary On
Versions: 1 2 3 4 5 6 7 8 9 10 11 12 13 14 15 16 17 18 19 20 21 22 23 24 25 26 27 28 29 30 31 32 33 34 35 36 37 38 39 40 41 42 43 44 45 46 47 48 49 50
000
ASUS43 KBIS 211410
RWRBIS

NWR BROADCAST TEXT
NATIONAL WEATHER SERVICE BISMARCK ND
900 AM CDT MON APR 21 2014

NOTE: "FAIR" INDICATES FEW OR NO CLOUDS BELOW 12,000 FEET WITH NO
SIGNIFICANT WEATHER AND/OR OBSTRUCTIONS TO VISIBILITY.


CITY           SKY/WX    TMP DP  RH WIND       PRES   REMARKS
WILLISTON      CLOUDY    41  35  79 N7        30.23R
MINOT          CLOUDY    38  32  79 NW9       30.20R
MINOT AFB      CLOUDY    37  34  88 NW10      30.20R
BISMARCK       CLOUDY    43  37  79 NW9       30.21R
DICKINSON      PTSUNNY   46  32  58 NW13      30.20R
GARRISON         N/A     40  35  83 N14       30.18R
HETTINGER ARPT SUNNY     44  32  62 W9        30.22R
JAMESTOWN      CLOUDY    43  37  79 NW22G32   30.10R
CARRINGTON     CLOUDY    39  37  93 N16G24    30.13R
CROSBY         CLOUDY    36  36 100 CALM      30.22R
HARVEY         CLOUDY    37  34  87 N15       30.16R
HAZEN          CLOUDY    41  36  81 N10G17    30.21R
LINTON         PTSUNNY   43  36  75 N14       30.17R
MANDAN         CLOUDY    39  36  87 NW9       30.21R
OAKES          FAIR      46  39  76 NW26G33   30.09R
RUGBY          PTSUNNY   36  32  87 NW15      30.17R
STANLEY        CLOUDY    34  34 100 N7        30.21R
TIOGA          CLOUDY    37  37 100 N7        30.24R
WATFORD CITY   CLOUDY    39  36  87 NW6       30.21R
$$

CITY           SKY/WX    TMP DP  RH WIND       PRES   REMARKS
GRAND FORKS    PTSUNNY   39  34  81 NW21G28   30.09R
GRAND FORKS AF CLOUDY    40  35  82 N16G25    30.10R
DEVILS LAKE    CLOUDY    36  27  69 N18       30.13S
FARGO          LGT RAIN  44  35  70 N25G33    30.07R
CANDO          CLOUDY    37  32  81 NW12G17   30.15S
CAVALIER       FAIR      39  32  75 NW21G30   30.11R
GRAFTON        FAIR      37  32  81 NW20G25   30.10R
GWINNER        SUNNY     48  37  66 NW24G35   30.09R
LANGDON        CLOUDY    36  32  87 NW15      30.12R
ROLLA          PTSUNNY   36  32  87 NW17      30.15R
WALHALLA         N/A     39  36  87 NW20      30.12R
$$

CITY           SKY/WX    TMP DP  RH WIND       PRES   REMARKS
ABERDEEN       SUNNY     49  33  54 NW14      30.13R
MOBRIDGE       SUNNY     45  29  53 NW12      30.15R
BUFFALO          N/A     47  27  45 W5        30.17R
RAPID CITY     SUNNY     50  25  37 NW7       30.23R
GLASGOW        MOSUNNY   36  29  75 S5        30.21R
SIDNEY         SUNNY     43  32  65 NE5       30.25R
WOLF POINT     MOSUNNY   38  30  73 CALM      30.23R
GLENDIVE       SUNNY     41  28  60 E5        30.24R
MILES CITY     MOSUNNY   44  28  53 SW9       30.23R
BAKER          PTSUNNY   45  30  55 W3        30.23R
$$

CITY           SKY/WX    TMP DP  RH WIND       PRES   REMARKS
BILLINGS       MOSUNNY   40  23  50 SW8       30.24S
GREAT FALLS    SUNNY     44  25  47 S7        30.19S
REGINA         CLOUDY    34  34 100 SW7       30.20R FOG
ESTEVAN        PTSUNNY   37  36  93 SW5       30.20R
$$




USA.gov is the U.S. government's official web portal to all federal, state and local government web resources and services.